{"data":{"norad_id":55844,"intl_designator":"2023-032A","name":"HORUS 2","alt_names":[],"object_type":"PAYLOAD","status":"ACTIVE","operator":null,"country":"EGYP","launch_date":"2023-03-13","launch_site_code":"JSC","launch_vehicle":null,"mission":null,"orbit_class":"UNKNOWN","rcs_meters":null,"size_class":null,"mass_kg":null,"dimensions":null,"purposes":[],"wikipedia_slug":null,"has_3d_model":false,"image_url":null,"decayed_at":null,"tle_current":{"epoch":"2026-09-21T22:34:33.210624Z","epoch_age_seconds":56755,"freshness":"FRESH","line1":"1 55844U 23032A   26264.94066216  .00003266  00000+0  14061-3 0  9991","line2":"2 55844  97.3459 338.3554 0001457  98.9777 261.1625 15.23299768196214","mean_motion":15.23299768,"eccentricity":0.0001457,"inclination_deg":97.3459,"raan_deg":338.3554,"arg_perigee_deg":98.9777,"mean_anomaly_deg":261.1625,"bstar":0.00014061,"rev_number":19621,"period_min":94.531623404015,"perigee_km":494.89410494817,"apogee_km":496.89719806282,"semimajor_km":6874.0326515055,"source":"CELESTRAK","updated_at":"2026-09-22T09:00:25.591834Z"}}}